Location: Poznań
(52.4062°N, 16.9234°E)
Time: 22:57:32
(UTC+01:00)

ISS - Pass Details

Date: 24 January 2019
Orbit: 403 x 411 km, 51.6° (Epoch: 18 February)

Event Time Altitude Azimuth Distance (km) Brightness Sun altitude
Rises 17:44:27 0° 196° (SSW) 2,324 0.5 -12.1°
Reaches altitude 10° 17:47:33 10° 163° (SSE) 1,471 -1.0 -12.6°
Maximum altitude 17:48:53 12° 139° (SE) 1,357 -1.4 -12.8°
Enters shadow 17:49:34 12° 126° (SE) 1,389 -1.5 -12.9°
